7 * 24
多渠道服务支持
STARLINK-37157(NORAD编号68394)是美国SpaceX公司星链(Starlink)卫星互联网星座中的一颗低轨卫星。星链项目旨在通过近地轨道大规模部署卫星,为全球尤其是地面基础设施覆盖不到的偏远地区提供高速低延迟宽带互联网服务。该卫星运行在近地轨道,采用氩气离子推进系统实现轨道机动和脱轨,配备相控阵天线保障通信带宽,属于星链星座扩容部署的一部分,目前处于在轨状态,支撑全球卫星互联网服务网络的覆盖能力。
美国
(US)
| 数据来源 | 国际轨道数据 |
| 星历时间: | 2026-04-14T19:29:34+0800 5小时前 查看轨道信息 |
| 半长轴: | 6722.173km |
| 偏心率: | 0.0001256 |
| 轨道倾角: | 97.284° |
| 近地点辐角 | 84.989° |
| 升交点赤经 | 245.997° |
| 平近点角 | 275.152° |
| 近地点: | 343.191km |
| 远地点: | 344.881km |
| 周期: | 91.416分钟 |
| 每日圈数: | 15.752094 |